sat.trackr.live / text

‹ back to catalog

STARLINK-11240 [DTC]

NORAD 60929 · 2024-155F

PAYLOAD ACTIVE UNKNOWN

§ Identity

Operator
Country
US
Launch date
2024-08-31
Launch site
AFWTR
Launch vehicle
Mass (kg)
RCS (m²)

Purposes: comms

External: N2YO · Heavens-Above · Gunter

§ Orbital elements

Epoch: 2026-09-21T22:09:42.550560Z

Period
91.74 min
Inclination
53.1572°
Eccentricity
0.0000766
Mean motion
15.69719950 rev/d
Perigee alt
359.2 km
Apogee alt
360.2 km
Semi-major
6,737.8 km
B*
7.7970e-4
RAAN
93.8549°
Arg perigee
78.7415°
Mean anomaly
281.3689°
Rev number
11,922

§ Raw data

STARLINK-11240 [DTC]1 60929U 24155F   26264.92340915  .00094997  00000+0  77970-3 0  99962 60929  53.1572  93.8549 0000766  78.7415 281.3689 15.69719950119224

JSON: /api/v1/satellites/60929 · /tle

For live sub-satellite position, see the globe view (requires WebGL).

§ Visibility from observer

Set your observer location to see the next 7 days of passes ≥ 10°. The values pass through the URL so the page stays shareable.

No JS? Fill the form by hand. The geolocation button needs JavaScript.